Wind_Speed
32 32 33 34 34 35 35 36 36 38 39 40 41 42 42 43 40 32 27 28 31 32 31 30 32 34 37 40 42 43 41 38 37 38 40 42 41 40 41 43 44 46
33 33 34 35 36 36 36 37 38 40 41 43 44 44 44 41 35 28 28 31 32 32 32 32 35 38 40 42 43 43 43 41 41 43 44 44 42 42 42 44 45 46
34 34 35 37 37 38 38 39 40 42 44 45 43 42 39 34 30 29 32 33 32 33 34 36 39 42 43 44 44 44 44 44 45 47 47 47 45 45 45 46 47 47
36 36 37 38 39 40 41 41 42 43 45 45 40 35 31 29 31 35 37 37 37 37 38 39 41 43 45 45 45 46 46 47 49 50 50 48 48 48 49 49 47 46
38 38 39 40 41 42 42 42 42 44 47 44 36 30 30 34 39 42 42 42 42 42 43 43 42 44 46 46 45 47 48 49 51 53 53 51 51 53 53 50 46 45
40 41 41 42 42 43 43 43 44 46 47 44 37 36 40 45 46 46 45 43 43 45 45 45 43 45 47 46 45 46 48 50 53 55 55 54 55 56 53 50 46 45
43 43 43 43 44 44 44 45 45 44 44 44 43 45 49 51 50 48 47 44 43 45 46 46 47 47 48 46 45 45 47 51 56 57 56 56 56 55 53 51 49 48
45 45 45 45 46 45 45 46 46 44 44 46 48 50 52 52 51 49 48 45 45 46 48 49 49 49 47 46 46 47 50 54 57 59 58 57 56 55 54 53 52 50
47 46 46 47 49 48 47 48 49 49 48 48 49 50 50 50 49 48 48 47 47 48 50 51 50 49 47 47 49 49 51 55 59 60 60 58 57 57 56 55 53 52
49 48 48 49 50 50 51 51 50 49 48 48 49 49 48 49 47 45 46 47 48 50 51 51 51 50 48 49 51 50 52 57 61 61 61 61 60 59 57 55 55 55
52 51 51 52 53 54 54 51 47 47 49 51 51 50 49 49 46 45 46 48 49 50 50 51 51 51 52 53 53 52 55 60 62 62 62 62 61 59 58 57 57 57
54 54 54 56 57 57 55 51 49 51 54 54 54 53 53 54 53 53 54 54 54 53 53 54 54 56 57 55 52 53 59 62 63 63 63 62 61 60 60 59 58 59
55 55 57 60 60 59 58 55 53 55 55 54 54 54 55 57 58 59 60 60 59 59 58 58 59 59 59 57 56 59 63 64 64 64 63 62 62 62 61 60 60 61
56 56 58 61 63 62 61 58 56 55 55 54 53 53 53 55 57 58 59 59 59 59 59 59 59 60 60 60 62 64 64 64 63 63 63 63 63 63 63 63 63 64
58 58 58 60 62 63 61 59 57 55 55 55 54 54 55 56 57 58 59 59 59 59 60 60 61 62 62 63 64 63 62 62 62 62 63 64 64 65 66 66 67 69
59 60 59 58 60 61 60 58 56 54 54 54 55 56 58 59 60 61 61 61 60 61 62 63 64 65 65 65 63 61 60 60 61 63 64 66 67 69 70 72 73 74
60 60 59 57 57 58 59 57 56 55 55 54 55 57 59 60 62 63 61 59 60 62 64 65 66 67 67 65 63 61 61 62 64 67 69 71 72 74 75 76 76 76
61 60 59 57 56 56 57 57 56 56 56 56 58 59 60 62 64 64 62 61 63 65 66 67 68 68 68 67 65 63 63 64 66 68 71 74 75 76 77 76 76 75
62 60 58 57 55 55 56 56 56 56 57 58 59 60 63 64 65 66 65 65 66 67 68 69 70 69 69 67 66 64 64 65 67 70 72 73 74 75 74 74 74 74
62 60 58 56 55 55 56 56 57 58 59 60 61 63 64 62 64 67 63 61 64 66 67 69 69 69 69 69 69 68 68 70 71 71 72 72 72 72 72 73 73 73
62 60 58 56 56 56 57 57 59 60 61 62 63 63 61 59 63 65 59 59 64 66 67 69 69 68 69 69 70 71 71 72 72 71 70 70 70 71 72 73 73 75
62 60 58 57 57 58 58 60 61 62 64 65 64 64 63 60 60 61 59 61 65 66 67 68 67 67 68 68 69 70 71 71 70 68 68 68 70 72 73 74 75 77
62 60 59 58 58 59 61 62 63 64 66 68 67 68 67 60 56 58 61 63 66 67 67 67 67 68 68 68 69 70 69 68 67 66 68 70 71 73 75 76 78 79
62 61 60 59 60 61 62 64 65 66 68 70 70 70 69 64 61 62 63 65 68 68 66 67 68 68 67 67 68 68 67 66 66 66 68 70 72 74 77 79 80 81
64 63 62 61 62 64 65 66 68 69 70 72 73 72 69 67 67 67 66 67 68 65 65 67 66 65 65 66 67 68 68 66 66 68 70 72 75 78 79 80 81 83
66 65 65 64 65 66 67 69 70 71 72 73 73 72 70 70 69 67 66 65 63 63 64 62 59 60 63 65 67 69 69 68 68 71 75 77 79 80 80 82 85 87
Wind_Direction
316 317 317 317 316 316 317 316 316 316 317 318 318 318 319 320 320 319 317 320 323 323 323 323 324 326 326 324 321 319 315 313 315 319 320 319 318 315 314 313 312 313
315 315 315 314 313 313 313 313 315 316 317 318 318 317 317 317 317 316 315 318 321 321 321 321 321 323 324 324 321 317 313 309 310 314 316 317 316 314 313 312 312 312
313 313 312 311 311 310 311 312 314 316 319 320 319 319 318 316 315 316 315 316 317 317 317 317 317 317 318 319 318 315 312 308 308 310 312 314 314 314 314 313 312 311
312 310 310 309 309 309 311 313 315 317 320 322 320 319 320 316 315 316 315 313 312 311 310 311 312 312 311 312 314 313 309 307 307 308 309 311 313 314 315 314 312 310
309 308 306 307 308 311 314 316 317 319 320 320 317 316 317 315 314 314 313 311 308 307 307 308 309 308 307 308 310 310 307 306 305 306 308 310 312 314 315 314 311 309
306 304 304 306 309 313 315 316 316 319 320 316 311 309 311 311 310 308 308 307 305 304 305 306 306 304 303 306 307 306 305 302 302 304 308 310 312 313 313 312 310 309
302 302 303 307 310 312 314 314 315 316 315 310 305 304 304 304 303 301 301 302 300 300 301 302 304 303 302 303 304 302 300 298 300 304 308 309 309 310 310 310 309 308
299 301 306 308 309 310 312 312 311 310 308 305 302 301 301 301 300 299 300 300 298 297 298 300 303 303 301 302 302 300 298 297 300 304 305 306 307 308 308 308 308 307
299 303 307 308 308 309 309 308 308 308 307 306 304 303 303 304 304 303 303 302 300 299 299 301 303 303 302 303 303 301 297 296 300 303 304 305 306 306 306 306 306 306
300 303 305 306 306 306 306 308 310 310 309 308 307 306 307 307 308 307 305 304 302 302 301 301 302 302 302 304 304 300 295 296 301 304 304 304 304 305 305 304 304 306
301 303 305 305 304 305 307 311 312 309 308 308 307 306 307 307 307 307 306 304 302 301 300 299 299 299 301 304 304 299 295 298 302 304 303 303 302 303 303 303 304 306
300 303 305 304 304 306 308 309 307 304 305 305 303 303 303 303 304 304 303 301 300 299 298 296 296 296 299 303 303 298 297 300 302 302 301 300 300 301 301 302 304 306
300 303 304 303 304 306 306 306 305 304 304 304 302 301 300 300 300 300 300 300 299 298 296 295 295 297 298 300 299 297 298 300 301 300 299 298 298 299 300 301 303 306
299 301 302 303 304 305 305 306 307 307 305 304 303 302 300 299 299 300 301 302 301 300 299 299 299 299 299 298 297 298 299 300 300 299 298 297 298 298 298 300 302 305
298 299 300 301 302 303 305 306 307 306 305 304 304 303 303 303 303 304 304 303 303 302 301 301 300 300 300 300 301 302 302 302 300 299 297 296 296 297 297 299 301 303
297 298 298 299 300 302 304 305 304 303 302 303 304 305 305 305 304 305 304 303 302 301 301 300 300 301 301 301 302 301 300 299 298 296 295 295 295 296 297 299 301 303
295 296 297 298 299 300 302 301 301 301 302 303 304 304 304 304 304 305 304 301 300 301 300 300 300 299 299 298 297 296 295 295 294 294 294 294 295 297 298 300 302 304
294 295 296 297 298 298 298 298 299 301 302 303 304 304 304 304 304 305 303 299 299 299 299 298 298 297 297 296 295 294 294 294 294 294 294 295 296 297 299 301 303 305
294 295 296 296 296 296 295 296 298 300 301 302 303 303 304 304 303 304 303 300 298 298 297 297 297 297 297 297 296 296 296 296 296 296 297 297 298 299 300 301 303 304
294 294 295 295 294 294 294 295 297 298 299 300 301 303 305 303 303 305 302 296 296 297 297 297 297 297 297 296 296 297 298 299 299 299 299 299 299 300 301 303 303 303
293 294 294 294 294 294 294 294 296 297 298 300 302 304 305 301 301 303 298 292 295 298 297 297 296 295 295 295 295 296 297 297 298 297 298 298 299 301 302 303 303 302
293 293 294 294 294 294 294 295 297 298 299 301 302 303 302 299 299 301 296 293 296 298 297 297 295 294 294 294 295 296 295 295 295 295 296 297 300 302 302 302 303 304
292 293 293 294 294 294 295 296 298 299 300 301 301 302 302 300 298 296 293 293 297 298 297 296 294 293 294 294 294 294 293 293 293 294 295 298 300 302 302 303 305 306
292 292 292 293 293 294 296 297 298 299 300 301 301 301 301 299 297 296 292 294 297 298 296 295 294 294 295 294 293 293 292 292 293 295 297 300 301 302 303 304 306 307
291 291 292 293 294 296 297 298 298 299 300 300 301 301 301 299 299 299 298 298 299 298 297 295 294 294 294 294 293 292 292 292 293 296 300 301 302 304 304 306 307 309
291 291 292 294 295 296 297 297 298 299 300 300 301 301 301 301 301 302 302 300 299 297 296 293 292 293 294 293 293 293 292 291 293 298 301 303 304 305 306 307 309 311
Height
10960 10959 10957 10955 10953 10951 10949 10946 10944 10942 10940 10938 10936 10934 10932 10929 10927 10925 10923 10920 10918 10917 10915 10913 10911 10908 10906 10903 10901 10899 10897 10894 10892 10890 10888 10885 10883 10880 10878 10875 10872 10869
10957 10956 10954 10951 10949 10947 10945 10942 10940 10938 10936 10934 10932 10930 10927 10925 10923 10921 10919 10916 10914 10913 10911 10909 10907 10904 10902 10899 10896 10894 10892 10890 10888 10886 10884 10881 10879 10877 10874 10871 10868 10865
10954 10952 10950 10948 10945 10943 10941 10939 10937 10935 10933 10931 10928 10926 10924 10922 10920 10918 10915 10913 10911 10909 10908 10906 10903 10901 10898 10895 10892 10890 10887 10885 10883 10881 10879 10877 10875 10872 10870 10867 10864 10861
10950 10948 10945 10943 10940 10938 10937 10935 10934 10932 10929 10927 10925 10922 10921 10919 10918 10915 10912 10910 10907 10905 10904 10902 10900 10897 10894 10892 10889 10885 10882 10880 10877 10876 10874 10872 10870 10868 10866 10863 10860 10857
10945 10943 10940 10938 10936 10935 10933 10932 10930 10928 10926 10924 10922 10919 10918 10916 10915 10913 10910 10907 10903 10901 10899 10897 10896 10893 10890 10887 10885 10881 10878 10874 10872 10870 10869 10867 10865 10863 10860 10858 10855 10852
10940 10938 10935 10933 10932 10931 10930 10928 10926 10924 10922 10920 10919 10916 10914 10912 10911 10908 10906 10903 10900 10896 10894 10892 10890 10888 10885 10883 10880 10877 10873 10870 10867 10865 10864 10862 10859 10857 10854 10853 10850 10848
10934 10932 10930 10930 10929 10928 10926 10924 10922 10920 10918 10916 10915 10913 10910 10907 10905 10903 10901 10899 10896 10892 10889 10887 10885 10882 10880 10878 10875 10872 10868 10864 10861 10860 10859 10856 10854 10851 10849 10847 10845 10843
10928 10927 10927 10926 10924 10924 10922 10920 10917 10916 10914 10912 10909 10907 10904 10902 10900 10898 10895 10893 10891 10888 10885 10882 10880 10877 10875 10873 10870 10867 10863 10859 10856 10854 10852 10851 10848 10846 10843 10841 10839 10837
10924 10925 10924 10921 10919 10918 10917 10915 10913 10910 10908 10906 10903 10901 10898 10896 10894 10892 10890 10887 10885 10883 10880 10877 10875 10872 10870 10868 10865 10862 10858 10853 10850 10848 10846 10844 10843 10840 10838 10836 10833 10831
10919 10920 10920 10918 10914 10912 10911 10910 10909 10905 10902 10900 10898 10896 10893 10890 10888 10886 10884 10882 10879 10877 10874 10872 10870 10867 10865 10863 10860 10857 10852 10847 10845 10843 10840 10838 10836 10834 10832 10829 10827 10824
10913 10914 10914 10912 10908 10906 10906 10907 10904 10900 10897 10895 10893 10892 10889 10886 10884 10881 10879 10877 10874 10872 10870 10868 10866 10863 10861 10858 10855 10852 10846 10842 10840 10837 10834 10832 10830 10828 10826 10823 10820 10817
10908 10908 10907 10903 10901 10901 10901 10902 10900 10895 10893 10891 10889 10888 10885 10882 10879 10877 10874 10872 10870 10868 10865 10863 10860 10858 10856 10853 10850 10846 10841 10838 10835 10831 10829 10826 10824 10821 10819 10816 10814 10810
10904 10903 10900 10895 10894 10895 10894 10895 10894 10891 10888 10886 10883 10882 10880 10876 10873 10871 10869 10866 10864 10862 10859 10857 10854 10852 10850 10848 10844 10840 10836 10833 10829 10826 10823 10820 10818 10815 10812 10809 10806 10803
10899 10899 10896 10891 10888 10887 10887 10887 10887 10885 10883 10880 10878 10876 10874 10871 10868 10865 10862 10859 10856 10854 10851 10849 10847 10845 10843 10841 10837 10833 10830 10826 10823 10820 10817 10814 10811 10809 10806 10802 10799 10795
10895 10894 10892 10890 10885 10881 10880 10881 10881 10879 10877 10874 10872 10869 10867 10864 10861 10858 10855 10852 10849 10847 10844 10842 10840 10838 10836 10833 10829 10826 10823 10819 10817 10814 10811 10808 10805 10802 10799 10796 10793 10789
10891 10888 10887 10886 10882 10877 10875 10874 10873 10872 10870 10869 10866 10863 10860 10857 10854 10852 10849 10845 10842 10839 10837 10834 10832 10830 10828 10826 10823 10820 10817 10814 10810 10807 10804 10801 10798 10794 10791 10788 10785 10781
10885 10883 10881 10880 10878 10874 10870 10867 10865 10864 10863 10862 10860 10856 10853 10850 10847 10845 10842 10838 10835 10832 10829 10827 10825 10823 10822 10819 10817 10814 10811 10808 10804 10800 10796 10792 10789 10786 10782 10779 10776 10772
10878 10877 10876 10874 10873 10869 10865 10861 10860 10858 10856 10855 10853 10850 10847 10844 10840 10838 10835 10832 10829 10826 10823 10821 10819 10817 10816 10813 10810 10807 10804 10801 10797 10792 10788 10784 10780 10777 10774 10771 10767 10763
10872 10870 10869 10868 10867 10864 10859 10857 10855 10853 10851 10849 10846 10844 10842 10839 10835 10832 10829 10825 10822 10819 10816 10814 10812 10810 10808 10805 10802 10799 10796 10792 10788 10784 10779 10775 10772 10768 10765 10762 10758 10755
10864 10864 10863 10862 10860 10858 10855 10852 10851 10848 10845 10843 10841 10838 10835 10832 10829 10826 10822 10817 10815 10812 10809 10806 10804 10802 10800 10797 10793 10790 10788 10784 10779 10775 10771 10767 10764 10760 10757 10753 10750 10746
10857 10856 10856 10855 10853 10851 10848 10846 10844 10841 10839 10837 10835 10833 10831 10827 10823 10821 10816 10810 10807 10805 10801 10797 10795 10793 10791 10788 10785 10783 10780 10776 10772 10768 10764 10760 10756 10753 10749 10745 10742 10738
10849 10848 10848 10847 10845 10843 10840 10838 10836 10834 10831 10829 10828 10827 10826 10822 10818 10814 10810 10805 10800 10797 10793 10789 10786 10784 10782 10779 10777 10774 10772 10768 10765 10761 10757 10753 10749 10745 10740 10737 10734 10729
10841 10841 10841 10840 10838 10834 10832 10831 10829 10826 10823 10821 10820 10819 10818 10816 10813 10808 10803 10797 10793 10790 10785 10781 10778 10775 10774 10771 10768 10765 10762 10759 10757 10754 10750 10745 10741 10736 10731 10728 10725 10721
10834 10833 10834 10833 10830 10827 10825 10823 10821 10819 10816 10812 10811 10810 10809 10808 10806 10801 10795 10790 10786 10782 10778 10774 10769 10767 10765 10762 10758 10756 10753 10750 10748 10745 10742 10737 10733 10728 10723 10719 10716 10712
10826 10826 10826 10825 10822 10819 10817 10815 10813 10811 10808 10804 10802 10801 10799 10797 10795 10791 10786 10781 10778 10774 10770 10766 10762 10759 10757 10753 10749 10746 10744 10742 10740 10737 10733 10729 10725 10720 10716 10711 10707 10703
10818 10817 10817 10816 10814 10811 10809 10807 10805 10803 10800 10796 10793 10791 10789 10786 10783 10780 10776 10772 10769 10766 10762 10758 10755 10752 10748 10744 10741 10738 10735 10733 10731 10727 10723 10719 10715 10711 10707 10702 10697 10693